IW4BGV-3 Weather Reports


Display with metric or nautical units.
time (UTC)temp
F
wind
direction
speed
MPH
gust
MPH
rain 1hr
in
rain 24hr
in
rain mn
in
humidity
%
barometer
mb
20260505091030 62 93 81.0 81.0 0.00 0.16 0.16 77 1014.1
20260505090528 62 110 81.0 81.0 0.00 0.16 0.16 77 1014.1
20260505085029 61 135 81.0 81.0 0.00 0.16 0.16 79 1014.1
20260505084528 61 107 81.0 81.0 0.00 0.16 0.16 80 1014.2
20260505084030 61 84 81.0 81.0 0.00 0.16 0.16 81 1014.2
20260505083529 60 82 81.0 81.0 0.00 0.16 0.16 80 1014.2
20260505083029 60 90 81.0 81.0 0.00 0.16 0.16 81 1014.2
20260505082528 60 90 81.0 81.0 0.02 0.16 0.16 81 1014.2
20260505082030 59 94 81.0 81.0 0.02 0.16 0.16 81 1014.3
20260505081542 59 86 67.0 81.0 0.02 0.16 0.16 81 1014.3
20260505080528 58 85 2.0 5.0 0.02 0.16 0.16 81 1014.3
20260505080030 58 85 2.0 3.0 0.02 0.16 0.16 81 1014.3
20260505075530 58 90 2.0 8.0 0.02 0.16 0.16 80 1014.4
20260505075029 58 74 6.0 9.0 0.02 0.16 0.16 80 1014.5
20260505073528 58 62 5.0 7.0 0.06 0.16 0.16 79 1014.3
20260505073029 58 127 5.0 7.0 0.06 0.16 0.16 79 1014.3
20260505072528 58 112 3.0 6.0 0.06 0.14 0.14 79 1014.3
20260505072029 58 112 3.0 3.0 0.06 0.14 0.14 78 1014.2
20260505071528 58 142 0.0 3.0 0.06 0.14 0.14 78 1014.3
20260505071033 58 118 6.0 8.0 0.06 0.14 0.14 78 1014.3
20260505070528 58 66 1.0 3.0 0.06 0.14 0.14 79 1014.4
20260505070031 58 48 3.0 7.0 0.06 0.14 0.14 78 1014.2
20260505065528 58 41 4.0 7.0 0.06 0.14 0.14 78 1014.1
20260505065029 58 54 1.0 3.0 0.06 0.14 0.14 78 1014.2
20260505064529 58 56 2.0 3.0 0.04 0.12 0.12 79 1014.3
20260505064032 58 104 2.0 5.0 0.02 0.10 0.10 79 1014.3
20260505062538 57 325 1.0 1.0 0.00 0.08 0.08 79 1014.0
20260505061528 57 221 1.0 2.0 0.00 0.08 0.08 79 1014.0
20260505061031 57 180 2.0 2.0 0.00 0.08 0.08 79 1014.1
20260505060529 57 201 2.0 2.0 0.00 0.08 0.08 80 1014.2
20260505055031 56 203 1.0 3.0 0.00 0.08 0.08 80 1014.0
20260505054530 56 228 0.0 1.0 0.00 0.08 0.08 80 1013.9
20260505053530 56 141 0.0 1.0 0.00 0.08 0.08 79 1013.9
20260505053031 56 180 0.0 1.0 0.00 0.08 0.08 79 1013.9
20260505052032 56 172 1.0 2.0 0.00 0.08 0.08 79 1013.9
20260505051529 56 199 1.0 3.0 0.00 0.08 0.08 79 1013.9
20260505050533 56 197 3.0 8.0 0.00 0.08 0.08 78 1014.0
20260505041532 56 156 3.0 8.0 0.08 0.08 0.08 75 1014.4
20260505041031 56 170 4.0 7.0 0.08 0.08 0.08 75 1014.4
20260505040530 56 149 3.0 8.0 0.08 0.08 0.08 75 1014.4
20260505040030 56 166 4.0 6.0 0.08 0.08 0.08 74 1014.4
20260505035030 57 158 2.0 7.0 0.06 0.06 0.06 73 1014.5
20260505034530 57 186 5.0 8.0 0.06 0.06 0.06 73 1014.5
20260505034031 57 180 4.0 6.0 0.06 0.06 0.06 73 1014.7
20260505033528 57 158 8.0 10.0 0.04 0.04 0.04 72 1014.6
20260505033030 57 159 6.0 9.0 0.02 0.02 0.02 71 1014.6
20260505032036 58 181 7.0 16.0 0.00 0.00 0.00 70 1014.6
20260505031529 59 307 9.0 10.0 0.00 0.00 0.00 68 1014.6
20260505031033 59 301 10.0 14.0 0.00 0.00 0.00 67 1014.6
20260505030030 60 188 6.0 9.0 0.00 0.00 0.00 65 1014.5
20260505025529 61 164 10.0 14.0 0.00 0.00 0.00 64 1014.5
20260505025030 61 316 13.0 13.0 0.00 0.00 0.00 63 1014.5
20260505024529 61 308 6.0 7.0 0.00 0.00 0.00 62 1014.5
20260505024031 62 316 6.0 7.0 0.00 0.00 0.00 61 1014.5
20260505023529 62 307 7.0 7.0 0.00 0.00 0.00 61 1014.5
20260505023031 61 182 4.0 8.0 0.00 0.00 0.00 61 1014.5
20260505022529 61 163 7.0 7.0 0.00 0.00 0.00 61 1014.5
20260505022030 61 153 4.0 7.0 0.00 0.00 0.00 61 1014.6
20260505021529 61 184 2.0 7.0 0.00 0.00 0.00 61 1014.5
20260505021031 62 247 1.0 3.0 0.00 0.00 0.00 61 1014.6
20260505020530 62 281 3.0 5.0 0.00 0.00 0.00 61 1014.6
20260505015529 62 316 1.0 5.0 0.00 0.00 0.00 60 1014.7
20260505015031 62 316 2.0 2.0 0.00 0.00 0.00 60 1014.7
20260505014529 62 307 1.0 2.0 0.00 0.00 0.00 60 1014.8
20260505014031 62 308 4.0 6.0 0.00 0.00 0.00 59 1014.7
20260505013043 62 240 5.0 7.0 0.00 0.00 0.00 59 1014.7
20260505012030 62 197 3.0 5.0 0.00 0.00 0.00 59 1014.9
20260505010529 63 180 2.0 3.0 0.00 0.00 0.00 57 1015.0
20260505010030 63 180 2.0 3.0 0.00 0.00 0.00 57 1015.1
20260505005534 63 182 3.0 6.0 0.00 0.00 0.00 57 1015.0
20260505004529 63 197 5.0 8.0 0.00 0.00 0.00 56 1015.2
20260505004031 64 174 4.0 6.0 0.00 0.00 0.00 56 1015.2
20260505003530 64 178 3.0 6.0 0.00 0.00 0.00 56 1015.4
20260505003031 64 180 7.0 7.0 0.00 0.00 0.00 56 1015.4
20260505001030 64 181 3.0 3.0 0.00 0.00 0.00 56 1015.5
20260505000030 64 160 4.0 6.0 0.00 0.00 0.00 56 1015.7
20260504235031 64 160 3.0 6.0 0.00 0.00 0.00 56 1016.0
20260504234530 64 160 3.0 3.0 0.00 0.00 0.00 56 1016.0
20260504234032 64 158 1.0 3.0 0.00 0.00 0.00 56 1016.0
20260504233529 64 174 2.0 2.0 0.00 0.00 0.00 56 1016.1
20260504233031 64 183 1.0 1.0 0.00 0.00 0.00 56 1016.2
20260504232031 64 180 2.0 3.0 0.00 0.00 0.00 55 1016.2
20260504231547 64 180 3.0 5.0 0.00 0.00 0.00 56 1016.2
20260504231031 64 202 4.0 5.0 0.00 0.00 0.00 56 1016.2
20260504230530 64 176 5.0 7.0 0.00 0.00 0.00 56 1016.2
20260504230030 64 172 4.0 9.0 0.00 0.00 0.00 56 1016.4
20260504225529 64 158 4.0 9.0 0.00 0.00 0.00 56 1016.4
20260504225030 64 164 3.0 6.0 0.00 0.00 0.00 56 1016.3
20260504224031 64 165 5.0 8.0 0.00 0.00 0.00 56 1016.4
20260504223530 64 191 2.0 3.0 0.00 0.00 0.00 56 1016.5
20260504223040 64 183 2.0 10.0 0.00 0.00 0.00 56 1016.5
20260504222530 64 194 3.0 10.0 0.00 0.00 0.00 56 1016.5
20260504221529 64 174 3.0 7.0 0.00 0.00 0.00 56 1016.5
20260504221031 64 180 7.0 9.0 0.00 0.00 0.00 55 1016.5
20260504220530 64 171 3.0 6.0 0.00 0.00 0.00 55 1016.4
20260504220031 64 163 3.0 8.0 0.00 0.00 0.00 55 1016.6
20260504215529 64 166 4.0 7.0 0.00 0.00 0.00 55 1016.6
20260504215031 64 187 4.0 7.0 0.00 0.00 0.00 55 1016.6
20260504214532 65 210 3.0 6.0 0.00 0.00 0.00 55 1016.6
20260504214031 65 213 2.0 7.0 0.00 0.00 0.00 54 1016.6
20260504213031 65 184 8.0 12.0 0.00 0.00 0.00 55 1016.6
20260504212529 65 188 7.0 12.0 0.00 0.00 0.00 55 1016.5
20260504212030 65 173 5.0 14.0 0.00 0.00 0.00 55 1016.5
20260504211529 65 207 8.0 16.0 0.00 0.00 0.00 55 1016.6
20260504211030 65 171 6.0 14.0 0.00 0.00 0.00 56 1016.6
20260504210530 65 183 7.0 10.0 0.00 0.00 0.00 56 1016.7
20260504210032 65 226 7.0 12.0 0.00 0.00 0.00 56 1016.7
20260504205530 65 190 6.0 8.0 0.00 0.00 0.00 56 1016.8
20260504204529 65 215 4.0 6.0 0.00 0.00 0.00 56 1016.6
20260504203528 65 178 1.0 2.0 0.00 0.00 0.00 55 1016.5
20260504203030 65 231 1.0 2.0 0.00 0.00 0.00 55 1016.6
20260504202529 66 259 3.0 3.0 0.00 0.00 0.00 55 1016.6
20260504202031 66 177 2.0 3.0 0.00 0.00 0.00 54 1016.6
20260504201530 66 225 1.0 3.0 0.00 0.00 0.00 54 1016.6
20260504201031 66 198 2.0 3.0 0.00 0.00 0.00 53 1016.4
20260504195529 67 180 4.0 6.0 0.00 0.00 0.00 52 1016.5
20260504194529 67 189 4.0 6.0 0.00 0.00 0.00 51 1016.2
20260504194031 68 180 1.0 3.0 0.00 0.00 0.00 50 1016.2
20260504193031 68 158 1.0 5.0 0.00 0.00 0.00 50 1016.2
20260504192530 68 197 4.0 7.0 0.00 0.00 0.00 49 1016.1
20260504192030 68 174 5.0 8.0 0.00 0.00 0.00 49 1016.1
20260504191039 69 190 3.0 5.0 0.00 0.00 0.00 48 1016.0
20260504190030 69 158 2.0 7.0 0.00 0.00 0.00 48 1016.0
20260504185031 70 158 3.0 3.0 0.00 0.00 0.00 48 1016.0
20260504183030 70 180 4.0 7.0 0.00 0.00 0.00 49 1015.7
20260504182538 70 196 2.0 5.0 0.00 0.00 0.00 50 1015.6
20260504181031 70 187 3.0 5.0 0.00 0.00 0.00 52 1015.7
20260504180529 70 170 2.0 5.0 0.00 0.00 0.00 53 1015.7
20260504180030 70 184 2.0 5.0 0.00 0.00 0.00 54 1015.6
20260504175528 70 161 3.0 7.0 0.00 0.00 0.00 55 1015.7
20260504175030 70 179 1.0 2.0 0.00 0.00 0.00 56 1015.5
20260504174528 70 158 2.0 3.0 0.00 0.00 0.00 56 1015.5
20260504174039 70 180 1.0 3.0 0.00 0.00 0.00 56 1015.7
20260504173528 70 178 1.0 2.0 0.00 0.00 0.00 56 1015.7
20260504173030 70 167 0.0 1.0 0.00 0.00 0.00 56 1015.6
20260504172030 70 118 0.0 0.0 0.00 0.00 0.00 55 1015.6
20260504171528 70 130 1.0 3.0 0.00 0.00 0.00 55 1015.6
20260504171030 70 128 2.0 3.0 0.00 0.00 0.00 55 1015.5
20260504170528 70 94 0.0 2.0 0.00 0.00 0.00 55 1015.7
20260504151030 71 71 6.0 13.0 0.00 0.00 0.00 54 1016.0
20260504141030 73 65 8.0 12.0 0.00 0.00 0.00 50 1016.2
20260504140529 73 68 10.0 17.0 0.00 0.00 0.00 49 1016.3
20260504130538 73 60 9.0 16.0 0.00 0.00 0.00 44 1016.8
20260504110529 74 45 11.0 14.0 0.00 0.00 0.00 45 1017.6
20260504100537 73 26 11.0 13.0 0.00 0.00 0.00 47 1017.9